Location: PSU-Greenbush Astrophysical Observatory
(37.5140°N, 94.9880°W)
Time: 00:26:29
(UTC-06:00)

deb Explorer IX - Pass Details

Date: 31 January 2020
Orbit: 549 x 1099 km, 38.8° (Epoch: 20 February)

Event Time Altitude Azimuth Distance (km) Brightness Sun altitude
Rises 23:12:58 0° 283° (WNW) 3,720 - -63.1°
Reaches altitude 10° 23:15:33 10° 282° (WNW) 2,827 - -63.5°
Maximum altitude 23:22:35 80° 197° (SSW) 1,103 - -64.4°
Drops below altitude 10° 23:29:54 10° 111° (ESE) 2,938 - -65.4°
Sets 23:32:38 0° 111° (ESE) 3,874 - -65.7°
